Regional Weather Roundup
Issued by NWS Charleston, WV

Home | Current Version | Previous Version | Graphics & Text | Print | Product List | Glossary On
Versions: 1 2 3 4 5 6 7 8 9 10 11 12 13 14 15 16 17 18 19 20 21 22 23 24 25 26 27
000
ASUS41 KRLX 162010
RWRRLX
West Virginia Regional Weather Roundup
National Weather Service Charleston WV
300 PM EST FRI FEB 16 2018

Note: "fair" indicates few or no clouds below 12,000 feet with no
significant weather and/or obstructions to visibility.

WVZ003-162100-
Northern Panhandle of West Virginia

CITY           SKY/WX    TMP DP  RH WIND       PRES   REMARKS
WHEELING       CLOUDY    34  28  79 N14       30.04R
$$

WVZ009-162100-
Northwest West Virginia

CITY           SKY/WX    TMP DP  RH WIND       PRES   REMARKS
PARKERSBURG    CLOUDY    42  35  76 CALM      30.08R
$$

WVZ006-162100-
Western West Virginia

CITY           SKY/WX    TMP DP  RH WIND       PRES   REMARKS
HUNTINGTON     LGT RAIN  44  39  82 N9G20     30.07R
$$

WVZ015-162100-
West Central West Virginia

CITY           SKY/WX    TMP DP  RH WIND       PRES   REMARKS
CHARLESTON     LGT RAIN  46  44  93 VRB5      30.04R
$$

WVZ022-031-162100-
North Central West Virginia

CITY           SKY/WX    TMP DP  RH WIND       PRES   REMARKS
CLARKSBURG     LGT RAIN  42  38  85 N12       29.99R
MORGANTOWN     CLOUDY    38  34  85 NW9G17    30.02R
$$

WVZ025-035-042-045-162100-
Southern West Virginia

CITY           SKY/WX    TMP DP  RH WIND       PRES   REMARKS
BECKLEY        LGT RAIN  45  32  60 NW12G20   29.99R
LOGAN          PTSUNNY   45  45 100 VRB6      30.04R
BLUEFIELD      LGT RAIN  46  43  89 NW14G20   29.98R
LEWISBURG      LGT RAIN  48  42  79 W14G21    29.97R
$$

WVZ047-162100-
Northern Mountains of West Virginia

CITY           SKY/WX    TMP DP  RH WIND       PRES   REMARKS
ELKINS         RAIN      43  39  86 NW10      29.96R FOG
$$

WVZ052-162100-
Eastern Panhandle of West Virginia

CITY           SKY/WX    TMP DP  RH WIND       PRES   REMARKS
MARTINSBURG    PTSUNNY   53  42  66 NW13      29.85R
PETERSBURG     LGT RAIN  49  40  71 NW9       29.92R
$$




USA.gov is the U.S. government's official web portal to all federal, state and local government web resources and services.